Dewpoint
24 21 21 21 23 23 21 17 15 14 15 16 16 16 16 16 16 17 18 23 29 32 37 38 38 38 35 39 45 48 49 50 52 52 52 53 54 55 57 58 58 57 57 57 58 59 60 59 61 63 65 65 67 68 68 68 68 68 69 70 70 72 71 71 71 72 71 70 71 71 71 70 71 71 72 72 71 71 73 74 75 75 76 76 76 75
23 22 21 22 23 23 22 20 16 15 15 14 14 15 16 16 16 17 18 25 30 28 33 37 38 39 36 37 40 46 47 48 50 49 51 52 52 53 56 57 57 56 56 56 57 57 59 59 60 62 64 66 66 67 68 68 68 68 69 69 70 71 71 71 71 72 72 71 70 70 71 70 71 71 71 71 71 70 73 75 75 76 76 76 76 76
22 21 21 22 23 23 22 20 18 16 14 14 13 14 15 16 17 18 19 19 27 28 31 34 36 38 39 37 38 43 44 45 48 47 50 51 51 52 55 56 56 56 55 55 56 56 57 58 59 62 63 65 65 66 67 68 68 68 68 69 70 71 71 71 71 72 72 72 71 70 71 71 72 72 72 71 71 72 73 75 75 76 76 76 76 76
21 21 22 22 22 21 21 21 19 16 16 15 13 13 13 15 17 16 18 22 26 28 30 34 34 36 39 40 39 40 42 42 45 45 48 50 50 50 52 54 55 55 55 55 55 56 57 58 59 61 63 64 65 66 66 67 67 68 69 69 70 71 71 71 71 72 72 72 72 71 72 72 72 72 73 73 72 72 74 75 76 76 76 76 76 76
21 22 22 22 21 21 20 19 19 17 14 15 14 13 12 13 14 16 17 20 26 29 33 33 36 40 39 39 40 40 42 41 42 44 45 48 50 49 51 53 54 54 55 54 55 55 57 58 58 60 63 63 65 65 66 67 67 68 68 69 70 70 71 71 72 72 72 73 72 73 73 73 72 72 72 72 72 71 74 75 75 75 76 76 76 76
22 21 21 21 20 20 19 18 17 16 14 12 14 14 13 13 13 15 17 16 24 25 32 32 33 34 38 39 40 41 42 41 42 42 43 46 48 48 49 51 53 54 55 55 55 55 57 58 59 60 62 63 64 65 66 66 67 67 68 68 70 70 71 71 71 72 72 72 72 72 71 70 70 70 71 70 70 71 72 74 75 76 76 76 76 76
23 22 20 20 20 19 18 17 16 15 13 11 11 13 13 13 13 14 15 18 32 28 31 32 30 32 39 39 41 41 42 42 43 42 42 45 47 46 47 50 52 53 55 55 55 55 56 58 59 60 61 62 63 65 65 66 66 67 68 68 70 70 71 72 72 72 72 72 72 71 71 70 70 70 70 71 71 71 72 74 75 76 76 76 75 75
21 20 20 19 19 18 17 15 15 13 12 11 11 12 13 13 13 14 15 15 26 34 31 32 32 32 33 36 41 41 42 43 44 43 43 43 46 46 46 48 52 53 54 55 55 55 56 58 59 59 61 61 62 65 65 66 66 66 68 68 70 70 72 72 72 72 72 72 72 71 71 71 70 70 70 71 71 71 72 74 75 76 76 76 75 75
20 19 19 18 17 16 16 15 14 13 11 11 11 9 11 12 12 13 14 15 17 18 23 32 32 34 34 35 40 42 42 43 44 44 45 45 45 46 46 46 50 53 54 55 56 56 56 57 59 60 61 61 62 64 66 66 67 67 68 68 70 71 72 72 72 72 72 72 72 71 71 71 71 70 70 71 71 71 72 74 75 75 76 75 75 74
19 19 19 19 17 14 14 14 13 12 10 10 8 8 7 9 12 13 13 14 18 20 21 29 30 29 32 40 40 42 41 42 43 44 44 46 46 46 46 46 48 51 54 55 56 56 56 57 58 60 61 61 62 64 67 66 67 67 68 69 69 70 71 72 72 72 72 72 72 71 71 70 70 70 70 70 70 70 71 73 75 75 75 75 74 74
20 29 26 18 17 15 12 11 12 11 10 10 5 4 5 5 8 15 21 21 21 17 18 24 26 28 28 37 39 41 40 41 42 44 45 45 48 47 46 47 47 49 52 54 55 56 56 57 58 59 60 61 62 63 66 67 67 68 68 69 69 69 71 72 72 72 72 72 72 71 71 70 70 70 70 70 70 70 71 73 74 74 74 74 74 74
18 19 20 20 18 15 12 9 9 10 9 8 4 4 5 7 13 16 24 28 19 16 27 24 24 27 26 33 38 41 42 42 42 43 44 44 46 48 48 47 47 48 51 53 55 56 57 57 57 58 60 61 61 63 65 67 68 68 68 69 69 69 70 72 72 72 72 72 72 71 71 70 71 71 70 69 69 71 70 72 73 74 74 74 74 73
16 17 18 19 28 15 12 10 7 7 7 6 5 9 4 10 9 5 10 9 17 15 25 26 27 27 28 34 36 39 41 42 42 43 43 44 44 47 49 48 48 49 49 52 54 55 57 57 57 58 59 61 61 62 64 66 67 68 68 69 69 70 70 71 72 72 72 72 72 71 71 70 71 71 71 69 68 71 70 71 73 73 73 74 73 72
15 18 17 17 18 22 14 8 8 5 6 4 4 10 6 4 6 9 14 20 23 26 27 24 30 28 33 31 37 37 40 41 42 43 43 44 44 47 49 49 49 49 49 50 52 54 56 57 57 58 59 61 61 61 63 65 67 68 69 69 69 70 70 70 71 72 72 72 72 71 71 71 71 71 71 70 69 69 71 70 72 73 73 73 73 72
13 14 15 16 15 17 16 10 7 6 6 5 3 4 7 6 8 8 10 8 10 19 23 21 21 26 25 28 33 37 39 40 41 42 43 44 44 47 48 49 50 50 50 51 51 53 55 57 58 58 59 60 61 61 63 64 66 68 69 69 69 70 71 71 70 71 71 71 72 72 71 71 71 71 71 71 71 70 70 70 71 72 72 72 72 72
12 14 20 18 17 17 15 16 8 6 5 5 3 7 9 4 27 9 19 18 23 20 18 22 23 26 21 35 35 35 37 39 40 42 44 44 44 46 48 49 49 51 51 52 52 53 54 57 58 58 58 60 61 62 62 64 66 67 69 69 69 69 71 71 71 71 71 71 71 72 72 71 72 72 72 72 72 71 71 70 71 71 71 71 71 72
15 12 14 18 18 16 15 17 13 6 5 7 4 2 2 14 6 17 32 28 27 25 14 32 27 27 32 28 36 37 36 38 39 40 42 44 44 46 48 49 48 50 52 52 53 53 54 55 58 58 58 59 61 62 62 64 65 67 68 69 69 69 70 71 72 71 71 71 71 71 72 72 72 72 72 72 72 72 71 71 71 71 71 71 71 71
14 15 16 15 15 18 17 16 15 11 13 7 2 4 9 12 13 11 7 18 8 11 20 16 14 23 24 23 37 31 35 36 39 40 41 44 45 45 47 48 48 49 51 53 54 54 55 55 57 58 58 59 61 62 62 64 65 66 68 69 70 70 70 71 71 72 71 71 71 71 72 72 72 72 72 72 72 72 72 71 71 71 71 71 71 71
15 13 13 15 15 17 19 17 15 15 10 2 2 7 1 9 4 16 17 6 7 7 12 19 21 25 26 28 31 24 27 34 37 39 39 43 44 45 45 47 48 48 50 52 53 54 55 55 57 58 58 59 61 62 63 64 65 66 68 69 70 70 70 71 71 72 72 72 71 71 71 72 72 73 73 72 72 72 72 71 71 71 71 71 71 71
17 11 14 15 15 15 17 17 15 14 15 12 8 4 5 8 3 10 11 20 15 19 15 11 19 17 30 29 32 23 23 32 36 37 38 40 43 44 45 45 47 48 49 51 52 54 55 56 56 58 58 59 60 62 63 64 65 66 67 69 70 70 71 71 71 72 72 72 72 72 72 72 72 73 73 73 72 72 72 72 71 71 71 71 71 71
14 16 12 15 15 14 13 16 14 14 13 13 10 7 13 12 15 4 14 4 14 20 17 17 12 22 31 36 29 26 26 32 36 37 39 38 41 43 44 45 46 47 48 50 52 53 55 56 57 58 59 59 61 63 63 63 64 65 67 69 70 71 71 71 71 72 72 72 72 72 72 72 72 73 73 73 73 72 72 72 71 71 71 71 71 71
14 16 12 14 12 13 12 15 14 14 14 13 12 11 7 5 10 3 7 17 15 14 16 15 10 29 36 33 35 29 27 31 37 37 38 38 39 42 43 44 46 47 48 49 51 52 54 56 58 58 59 60 61 62 63 63 64 65 67 68 70 71 71 71 72 72 72 72 72 72 72 72 72 73 73 73 73 72 72 72 72 71 71 71 71 71
15 23 14 13 12 11 13 14 15 14 14 14 12 11 8 8 12 12 7 21 15 7 11 25 16 18 32 37 35 34 33 32 35 37 37 38 39 41 43 44 46 48 48 48 49 51 53 56 58 59 60 61 61 63 63 64 64 65 66 68 70 70 71 71 72 72 72 72 72 72 73 73 73 73 73 72 72 72 72 72 72 72 71 71 71 71
46 17 16 16 18 14 15 15 16 16 14 13 12 11 8 6 6 6 13 26 11 20 9 11 16 17 28 32 24 30 37 34 32 35 37 38 39 41 43 45 47 48 49 49 49 50 53 55 58 60 61 61 62 63 63 64 64 65 66 67 69 70 71 71 72 72 72 72 72 72 73 73 73 73 72 72 72 72 72 72 72 72 71 71 71 71
19 18 20 15 15 14 12 15 16 18 14 12 11 10 10 9 7 9 13 31 14 17 9 9 6 11 33 34 23 26 34 29 37 35 37 38 42 41 44 46 48 49 50 50 50 51 52 55 58 60 61 61 62 63 64 64 64 65 65 66 68 69 71 71 72 72 72 72 72 72 72 73 73 73 72 72 72 72 72 72 72 72 71 71 71 71
17 19 20 13 14 13 12 11 11 13 13 12 12 10 10 8 8 10 6 18 12 28 24 16 13 27 34 36 17 10 10 15 27 38 37 38 40 40 43 46 49 50 51 50 51 51 52 55 58 60 61 62 62 63 64 64 64 65 65 66 67 69 70 71 72 72 72 72 72 72 72 73 73 72 72 72 72 71 71 72 72 72 72 71 71 71
25 21 21 18 14 15 17 24 28 33 15 12 11 10 9 9 9 9 17 14 10 25 21 27 28 30 25 24 23 14 12 11 16 24 40 38 38 41 43 46 48 50 50 51 52 52 54 57 58 60 61 61 62 63 64 64 64 64 65 66 67 68 70 71 72 72 72 72 72 72 72 72 72 72 72 72 72 72 71 71 71 71 72 71 71 70
34 25 17 25 21 17 15 17 21 20 12 12 11 10 9 9 10 9 11 10 27 16 14 25 40 23 28 32 29 21 14 15 30 34 36 41 41 39 44 48 55 49 50 51 52 53 55 57 59 60 61 61 62 63 64 64 64 65 65 66 66 67 69 71 71 72 72 72 72 72 72 72 72 72 72 72 72 72 71 71 71 71 72 72 71 71
35 29 25 18 16 16 14 12 13 21 16 12 11 10 9 10 10 9 14 16 21 12 12 21 36 29 30 36 32 29 26 32 29 32 36 38 39 39 42 43 47 48 50 51 52 53 55 56 58 59 61 62 62 63 64 65 65 65 65 66 66 67 68 70 71 72 72 72 72 72 72 72 72 72 72 72 72 72 72 71 71 71 71 72 71 71
32 30 32 22 16 15 16 14 13 13 20 19 12 11 10 9 9 10 10 14 12 23 21 23 31 25 25 25 23 25 34 39 40 47 47 44 50 50 45 44 46 48 49 50 52 52 54 56 58 59 60 62 63 63 64 65 65 65 65 65 66 67 68 70 71 71 72 72 72 72 72 72 72 72 72 72 72 72 72 71 71 71 71 71 71 71
32 31 40 29 22 15 15 17 14 13 17 18 18 14 12 11 9 9 9 12 19 15 25 15 23 26 26 26 18 19 28 45 33 30 41 45 49 53 49 49 49 49 49 51 52 53 54 56 58 60 61 62 64 64 64 65 66 66 65 66 66 66 67 69 70 71 71 72 72 73 72 72 72 72 72 72 72 72 72 72 72 71 71 71 71 71
33 33 32 31 25 17 15 15 15 14 14 15 16 16 15 13 12 10 12 14 20 27 27 27 27 24 30 35 34 28 26 30 28 37 45 48 47 54 53 51 50 50 50 50 52 53 55 57 58 60 61 62 64 65 65 66 66 66 66 66 66 66 67 68 69 70 71 72 72 73 73 72 72 72 72 72 72 72 72 72 72 71 71 71 71 72
34 32 30 30 28 27 17 15 14 14 14 13 14 13 16 18 18 15 15 20 18 16 18 20 17 27 26 33 29 25 23 29 31 35 44 51 55 53 53 53 52 53 53 54 55 56 56 57 59 61 61 62 63 65 65 66 66 66 66 66 66 66 67 68 68 70 71 71 72 72 73 72 72 72 72 72 72 72 72 72 71 71 71 71 71 72
33 33 31 34 29 28 24 16 16 16 13 14 25 16 18 16 17 21 23 20 18 17 21 20 19 29 32 32 29 25 23 28 33 37 41 47 50 55 54 54 54 53 53 53 54 56 57 59 60 61 61 62 63 64 66 67 67 67 67 67 67 66 67 67 68 69 70 71 72 72 73 73 72 72 72 72 72 72 72 72 71 71 71 71 71 71
32 33 30 33 31 27 26 29 23 16 16 36 32 24 19 18 19 21 30 31 28 30 27 34 38 33 37 31 29 34 39 42 44 42 43 44 42 47 54 55 55 55 55 55 55 55 56 58 59 60 61 62 62 63 65 67 67 67 67 67 67 67 67 67 68 69 70 71 71 72 72 72 72 72 72 72 72 72 72 72 72 71 71 71 71 71
30 29 29 31 31 31 30 25 19 20 36 40 30 30 30 21 22 25 41 46 50 36 32 44 45 45 43 44 44 43 41 45 49 51 51 50 47 47 45 45 54 54 53 55 55 55 56 57 58 58 60 62 64 64 64 66 67 68 68 68 67 67 67 67 68 68 69 70 71 72 72 72 72 72 72 72 72 72 72 72 72 72 72 71 71 72
27 28 31 29 32 26 29 25 24 34 32 33 33 34 31 30 26 28 42 45 50 53 47 45 47 48 50 50 49 48 48 43 45 51 53 53 53 49 41 45 45 50 50 53 58 61 61 59 59 60 61 62 64 64 65 65 66 68 68 68 68 68 67 67 67 68 69 70 71 71 72 72 72 72 72 72 72 72 72 72 72 72 72 72 72 72
34 26 33 30 32 29 25 24 25 24 23 28 40 43 40 39 36 44 46 46 52 54 52 53 53 54 53 52 52 53 47 41 50 52 54 59 60 58 54 53 47 42 39 47 56 59 61 62 63 64 65 64 65 66 66 66 67 67 68 68 69 68 67 67 67 68 69 69 70 71 72 72 72 72 72 72 72 72 72 72 73 72 73 72 72 72
42 30 30 31 34 33 28 22 21 23 28 37 38 40 39 41 46 45 46 45 51 55 53 55 55 56 55 52 53 49 46 49 50 53 58 64 64 64 64 64 63 60 54 43 51 57 61 63 63 63 66 68 68 68 69 68 68 68 68 68 69 68 68 67 67 67 68 69 70 71 71 72 72 72 72 72 72 72 72 73 73 73 73 73 73 73
43 42 38 33 39 37 29 24 21 29 26 32 41 39 37 38 36 33 36 43 50 54 56 56 55 55 56 56 55 54 50 50 53 55 61 64 65 65 65 64 64 64 66 68 66 57 59 63 65 65 64 66 68 69 70 69 69 69 69 69 69 68 68 67 67 68 68 69 69 70 72 72 72 73 72 72 72 72 73 73 74 73 73 73 73 72
42 44 41 38 34 35 39 30 30 32 43 47 47 48 41 40 34 28 27 39 53 56 57 57 57 58 58 58 57 56 58 58 60 62 64 64 64 64 65 64 64 64 65 67 67 68 58 60 65 64 64 64 67 69 70 70 69 69 69 69 69 68 68 68 68 68 68 69 69 70 72 73 73 73 73 73 73 73 74 74 73 73 72 72 71 70
43 45 45 44 41 39 36 34 29 34 45 49 50 51 48 37 25 29 42 53 57 60 61 61 61 62 62 62 62 62 62 63 64 63 63 63 63 64 64 64 64 64 65 67 68 67 68 69 65 63 66 67 67 69 70 70 69 69 69 69 69 69 69 69 68 68 68 69 69 71 72 73 73 73 74 74 74 74 74 74 73 72 71 71 70 69
44 45 43 43 45 43 40 37 31 26 39 49 51 48 50 39 42 48 55 58 61 61 62 62 62 62 62 61 62 62 62 62 62 63 63 62 63 63 64 64 64 64 64 65 66 67 67 66 67 68 68 69 68 70 70 70 70 69 69 69 69 70 70 70 69 69 70 70 70 71 72 73 73 74 74 74 74 74 73 73 72 71 70 69 69 68
50 45 42 44 48 41 41 40 39 46 48 51 52 46 48 50 53 54 58 59 61 61 61 61 61 61 62 61 61 61 62 62 62 62 62 62 62 63 63 63 64 64 64 64 65 66 68 66 66 68 69 70 70 70 71 71 70 70 69 70 70 70 70 70 71 71 71 70 71 72 73 74 74 74 74 74 74 73 72 72 70 69 69 68 68 67
50 47 48 40 47 46 44 46 50 49 51 53 53 54 55 58 58 60 60 60 60 60 61 61 60 61 61 60 60 61 61 61 61 62 61 62 62 62 62 63 64 64 64 64 64 65 66 67 66 67 67 68 69 70 69 71 71 71 70 71 72 72 72 72 72 72 72 72 73 73 74 74 74 74 74 73 73 72 71 70 69 68 67 67 66 66
52 53 54 50 50 53 52 51 54 53 54 54 54 54 55 56 57 58 58 58 59 59 59 58 58 57 57 58 58 58 59 60 60 61 61 62 62 62 62 63 63 64 64 64 64 65 66 67 67 67 66 66 67 69 69 70 70 71 71 73 73 73 73 73 73 73 73 73 74 74 74 74 74 73 73 72 72 71 70 69 68 67 67 66 66 65
51 52 52 49 52 44 40 50 52 54 55 54 54 54 55 55 54 55 56 57 57 56 56 55 55 55 55 55 54 54 54 55 56 58 60 61 62 62 61 61 62 63 63 63 64 64 64 64 65 65 65 65 66 68 69 69 69 69 70 70 72 73 73 72 73 73 74 74 74 74 74 73 72 72 71 71 70 69 68 68 67 67 66 66 65 65
48 53 51 51 51 48 48 51 53 55 55 55 55 54 53 52 53 51 52 51 51 51 52 53 54 54 53 53 53 53 53 54 55 57 59 61 62 62 61 61 61 62 62 63 64 64 64 64 65 66 66 66 67 68 68 68 68 68 69 69 70 70 70 70 70 72 73 73 73 73 73 72 72 70 69 69 68 67 67 67 67 66 66 65 65 64
48 51 46 51 49 51 52 53 53 54 53 53 53 52 53 52 49 49 50 49 49 49 50 50 50 50 50 51 51 52 52 53 54 54 55 57 59 62 62 62 62 62 62 63 63 64 65 65 65 65 65 66 67 68 67 67 67 67 68 68 69 68 67 67 66 67 70 72 73 71 71 71 70 69 68 66 62 62 65 66 66 66 64 63 65 65
51 47 51 51 46 46 45 49 53 49 49 52 53 53 53 52 51 52 49 48 48 48 48 48 49 49 49 49 50 50 51 52 53 54 54 54 55 57 59 61 62 63 64 64 64 64 64 65 65 64 64 64 66 67 67 67 68 68 69 68 68 67 66 66 66 66 67 67 67 67 67 67 67 65 63 62 59 58 55 50 45 55 64 61 55 55
48 48 50 47 47 45 52 55 55 54 53 54 54 55 54 53 52 50 51 48 47 47 47 47 47 48 49 49 50 50 51 52 53 54 54 54 55 56 58 60 61 62 64 64 64 64 63 64 65 64 64 63 65 66 67 67 67 68 68 67 68 67 66 66 66 66 66 66 66 65 65 65 65 65 64 62 61 60 58 57 53 43 43 48 51 49